When you browse on this site, cookies collect data to enhance your experience and personalize the content and advertising you see.
Visit our Privacy Policy to learn more. By continuing to use the site, you agree to this use of cookies and data.

Stündliche Wetter Wien

Heute, 4 Juli, Samstag

Zeit Temperatur Niederschläge Wind Luftdruck Luftfeuchtigkeit
00:00 +17°C° 0 mm 2 m/S 745 mmHg 76%
01:00 +17°C° 0 mm 2 m/S 745 mmHg 78%
02:00 +16°C° 0 mm 2 m/S 745 mmHg 79%
03:00 +16°C° 0 mm 2 m/S 745 mmHg 80%
04:00 +16°C° 0 mm 2 m/S 745 mmHg 80%
05:00 +17°C° 0 mm 2 m/S 745 mmHg 76%
06:00 +18°C° 0 mm 3 m/S 745 mmHg 72%
07:00 +19°C° 0 mm 2 m/S 746 mmHg 67%
08:00 +21°C° 0 mm 2 m/S 746 mmHg 61%
09:00 +22°C° 0 mm 3 m/S 746 mmHg 56%
10:00 +25°C° 0 mm 3 m/S 746 mmHg 50%
11:00 +25°C° 0 mm 3 m/S 745 mmHg 48%
12:00 +26°C° 0 mm 3 m/S 745 mmHg 46%
13:00 +27°C° 0 mm 3 m/S 745 mmHg 43%
14:00 +27°C° 0 mm 3 m/S 745 mmHg 44%
15:00 +27°C° 0 mm 3 m/S 744 mmHg 45%
16:00 +27°C° 0 mm 3 m/S 744 mmHg 46%
17:00 +26°C° 0 mm 3 m/S 744 mmHg 52%
18:00 +25°C° 0 mm 2 m/S 744 mmHg 57%
19:00 +24°C° 0 mm 2 m/S 744 mmHg 63%
20:00 +23°C° 0 mm 2 m/S 745 mmHg 64%
21:00 +21°C° 0 mm 2 m/S 745 mmHg 66%
22:00 +20°C° 0 mm 2 m/S 745 mmHg 67%
23:00 +19°C° 0 mm 2 m/S 745 mmHg 69%

Morgen, 5 Juli, Sonntag

Zeit Temperatur Niederschläge Wind Luftdruck Luftfeuchtigkeit
00:00 +19°C° 0 mm 2 m/S 745 mmHg 71%
01:00 +18°C° 0 mm 2 m/S 745 mmHg 73%
02:00 +18°C° 0 mm 2 m/S 745 mmHg 74%
03:00 +17°C° 0 mm 2 m/S 745 mmHg 75%
04:00 +17°C° 0 mm 2 m/S 745 mmHg 76%
05:00 +18°C° 0 mm 3 m/S 745 mmHg 73%
06:00 +20°C° 0 mm 3 m/S 745 mmHg 70%
07:00 +21°C° 0 mm 3 m/S 745 mmHg 67%
08:00 +24°C° 0 mm 3 m/S 745 mmHg 63%
09:00 +25°C° 0 mm 4 m/S 745 mmHg 59%
10:00 +27°C° 0 mm 4 m/S 745 mmHg 55%
11:00 +27°C° 0 mm 4 m/S 745 mmHg 52%
12:00 +28°C° 0 mm 4 m/S 744 mmHg 49%
13:00 +29°C° 0 mm 4 m/S 744 mmHg 46%
14:00 +29°C° 0 mm 3 m/S 743 mmHg 46%
15:00 +30°C° 0 mm 3 m/S 743 mmHg 46%
16:00 +30°C° 0 mm 3 m/S 743 mmHg 46%
17:00 +29°C° 0 mm 3 m/S 743 mmHg 52%
18:00 +27°C° 0 mm 3 m/S 743 mmHg 58%
19:00 +26°C° 0 mm 3 m/S 743 mmHg 64%
20:00 +25°C° 0 mm 2 m/S 743 mmHg 67%
21:00 +24°C° 0 mm 2 m/S 743 mmHg 71%
22:00 +23°C° 0 mm 2 m/S 743 mmHg 74%
23:00 +23°C° 0 mm 1 m/S 743 mmHg 76%

übermorgen, 6 Juli, Montag

Zeit Temperatur Niederschläge Wind Luftdruck Luftfeuchtigkeit
00:00 +22°C° 0 mm 1 m/S 743 mmHg 78%
01:00 +22°C° 0 mm 1 m/S 742 mmHg 80%
02:00 +22°C° 0 mm 1 m/S 742 mmHg 81%
03:00 +21°C° 0 mm 1 m/S 742 mmHg 81%
04:00 +20°C° 0 mm 2 m/S 742 mmHg 81%
05:00 +21°C° 0 mm 2 m/S 742 mmHg 79%
06:00 +23°C° 0 mm 2 m/S 742 mmHg 77%
07:00 +24°C° 0 mm 2 m/S 742 mmHg 74%
08:00 +25°C° 0 mm 3 m/S 742 mmHg 68%
09:00 +26°C° 0 mm 3 m/S 741 mmHg 61%
10:00 +28°C° 0 mm 3 m/S 741 mmHg 55%
11:00 +28°C° 0 mm 3 m/S 741 mmHg 52%
12:00 +29°C° 0 mm 4 m/S 740 mmHg 49%
13:00 +30°C° 0 mm 4 m/S 740 mmHg 47%
14:00 +29°C° 0.1 mm 5 m/S 740 mmHg 51%
15:00 +28°C° 0.1 mm 5 m/S 740 mmHg 55%
16:00 +27°C° 0.1 mm 6 m/S 739 mmHg 59%
17:00 +24°C° 0.4 mm 6 m/S 740 mmHg 64%
18:00 +22°C° 0.4 mm 6 m/S 740 mmHg 69%
19:00 +20°C° 0.4 mm 5 m/S 740 mmHg 75%
20:00 +19°C° 0.8 mm 6 m/S 741 mmHg 76%
21:00 +17°C° 0.8 mm 6 m/S 742 mmHg 78%
22:00 +16°C° 0.8 mm 7 m/S 743 mmHg 80%
23:00 +15°C° 1.3 mm 6 m/S 743 mmHg 82%

7 Juli, Dienstag

Zeit Temperatur Niederschläge Wind Luftdruck Luftfeuchtigkeit
00:00 +14°C° 1.3 mm 6 m/S 743 mmHg 85%
01:00 +13°C° 1.3 mm 6 m/S 744 mmHg 87%
02:00 +13°C° 1 mm 5 m/S 744 mmHg 87%
03:00 +13°C° 1 mm 4 m/S 744 mmHg 87%
04:00 +13°C° 1 mm 3 m/S 744 mmHg 86%
05:00 +13°C° 0.1 mm 3 m/S 744 mmHg 84%
06:00 +14°C° 0.1 mm 4 m/S 744 mmHg 81%
07:00 +14°C° 0.1 mm 4 m/S 744 mmHg 79%
08:00 +15°C° 0.2 mm 5 m/S 744 mmHg 73%
09:00 +16°C° 0.2 mm 5 m/S 744 mmHg 67%
10:00 +19°C° 0.2 mm 6 m/S 744 mmHg 61%
11:00 +19°C° 0.1 mm 6 m/S 744 mmHg 58%
12:00 +20°C° 0.1 mm 6 m/S 744 mmHg 55%
13:00 +21°C° 0.1 mm 6 m/S 744 mmHg 52%
14:00 +21°C° 0 mm 6 m/S 744 mmHg 52%
15:00 +21°C° 0 mm 6 m/S 744 mmHg 53%
16:00 +21°C° 0 mm 5 m/S 744 mmHg 53%
17:00 +20°C° 0 mm 5 m/S 744 mmHg 57%
18:00 +19°C° 0 mm 4 m/S 744 mmHg 62%
19:00 +18°C° 0 mm 3 m/S 745 mmHg 66%
20:00 +17°C° 0 mm 3 m/S 745 mmHg 67%
21:00 +16°C° 0 mm 2 m/S 745 mmHg 69%
22:00 +14°C° 0 mm 2 m/S 746 mmHg 70%
23:00 +14°C° 0 mm 2 m/S 746 mmHg 72%

8 Juli, Mittwoch

Zeit Temperatur Niederschläge Wind Luftdruck Luftfeuchtigkeit
00:00 +14°C° 0 mm 2 m/S 746 mmHg 74%
01:00 +13°C° 0 mm 1 m/S 746 mmHg 76%
02:00 +13°C° 0 mm 1 m/S 746 mmHg 78%
03:00 +12°C° 0 mm 1 m/S 746 mmHg 79%
04:00 +12°C° 0 mm 1 m/S 746 mmHg 80%
05:00 +14°C° 0 mm 1 m/S 746 mmHg 76%
06:00 +15°C° 0 mm 1 m/S 746 mmHg 72%
07:00 +16°C° 0 mm 2 m/S 746 mmHg 68%
08:00 +18°C° 0 mm 2 m/S 746 mmHg 63%
09:00 +19°C° 0 mm 2 m/S 746 mmHg 57%
10:00 +21°C° 0 mm 2 m/S 746 mmHg 51%
11:00 +23°C° 0 mm 2 m/S 746 mmHg 47%
12:00 +24°C° 0 mm 2 m/S 746 mmHg 44%
13:00 +25°C° 0 mm 2 m/S 745 mmHg 40%
14:00 +25°C° 0 mm 2 m/S 745 mmHg 41%
15:00 +25°C° 0 mm 2 m/S 745 mmHg 42%
16:00 +25°C° 0 mm 2 m/S 745 mmHg 43%
17:00 +24°C° 0 mm 2 m/S 745 mmHg 49%
18:00 +23°C° 0 mm 2 m/S 745 mmHg 56%
19:00 +21°C° 0 mm 2 m/S 745 mmHg 62%
20:00 +20°C° 0 mm 2 m/S 745 mmHg 64%
21:00 +18°C° 0 mm 2 m/S 745 mmHg 67%
22:00 +17°C° 0 mm 2 m/S 745 mmHg 69%
23:00 +17°C° 0 mm 2 m/S 745 mmHg 71%

9 Juli, Donnerstag

Zeit Temperatur Niederschläge Wind Luftdruck Luftfeuchtigkeit
00:00 +16°C° 0 mm 2 m/S 745 mmHg 73%
01:00 +16°C° 0 mm 2 m/S 745 mmHg 75%
02:00 +15°C° 0 mm 1 m/S 745 mmHg 76%
03:00 +15°C° 0 mm 1 m/S 745 mmHg 78%
04:00 +14°C° 0 mm 1 m/S 744 mmHg 79%
05:00 +16°C° 0 mm 1 m/S 744 mmHg 75%
06:00 +18°C° 0 mm 1 m/S 744 mmHg 71%
07:00 +20°C° 0 mm 1 m/S 744 mmHg 67%
08:00 +21°C° 0 mm 1 m/S 744 mmHg 63%
09:00 +23°C° 0 mm 2 m/S 744 mmHg 58%
10:00 +25°C° 0 mm 2 m/S 744 mmHg 53%
11:00 +26°C° 0 mm 2 m/S 744 mmHg 50%
12:00 +27°C° 0 mm 3 m/S 744 mmHg 47%
13:00 +28°C° 0 mm 3 m/S 743 mmHg 44%
14:00 +29°C° 0 mm 3 m/S 743 mmHg 44%
15:00 +29°C° 0 mm 4 m/S 743 mmHg 44%
16:00 +29°C° 0 mm 4 m/S 743 mmHg 45%
17:00 +28°C° 0 mm 4 m/S 742 mmHg 50%
18:00 +26°C° 0 mm 4 m/S 742 mmHg 55%
19:00 +25°C° 0 mm 3 m/S 742 mmHg 60%
20:00 +24°C° 0 mm 3 m/S 742 mmHg 61%
21:00 +22°C° 0 mm 3 m/S 742 mmHg 63%
22:00 +21°C° 0 mm 3 m/S 743 mmHg 65%
23:00 +20°C° 0 mm 3 m/S 742 mmHg 67%
Mehr zeigen